QPF
0.00 0.00 0.00 0.00 0.00 0.00 0.00 0.00 0.00 0.00 0.00 0.00 0.00 0.00 0.00 0.00 0.00 0.00 0.00 0.00 0.00 0.00 0.00 0.00 0.00 0.00 0.00 0.00 0.00 0.00 0.00 0.00 0.00 0.00 0.00 0.00 0.00 0.00 0.00 0.00 0.00 0.00 0.00 0.00 0.00
0.00 0.00 0.00 0.00 0.00 0.00 0.00 0.00 0.00 0.00 0.00 0.00 0.00 0.00 0.00 0.00 0.00 0.00 0.00 0.00 0.00 0.00 0.00 0.00 0.00 0.00 0.00 0.00 0.00 0.00 0.00 0.00 0.00 0.00 0.00 0.00 0.00 0.00 0.00 0.00 0.00 0.00 0.00 0.00 0.00
0.00 0.00 0.00 0.00 0.00 0.00 0.00 0.00 0.00 0.00 0.00 0.00 0.00 0.00 0.00 0.00 0.00 0.00 0.00 0.00 0.00 0.00 0.00 0.00 0.00 0.00 0.00 0.00 0.00 0.00 0.00 0.00 0.00 0.00 0.00 0.00 0.00 0.00 0.00 0.00 0.00 0.00 0.00 0.00 0.00
0.00 0.00 0.00 0.00 0.00 0.00 0.00 0.00 0.00 0.00 0.00 0.00 0.00 0.00 0.00 0.00 0.00 0.00 0.00 0.00 0.00 0.00 0.00 0.00 0.00 0.00 0.00 0.00 0.00 0.00 0.00 0.00 0.00 0.00 0.00 0.00 0.00 0.00 0.00 0.00 0.00 0.00 0.00 0.00 0.00
0.00 0.00 0.00 0.00 0.00 0.00 0.00 0.00 0.00 0.00 0.00 0.00 0.00 0.00 0.00 0.00 0.00 0.00 0.00 0.00 0.00 0.00 0.00 0.00 0.00 0.00 0.00 0.00 0.00 0.00 0.00 0.00 0.00 0.00 0.00 0.00 0.00 0.00 0.00 0.00 0.00 0.00 0.00 0.00 0.00
0.00 0.00 0.00 0.00 0.00 0.00 0.00 0.00 0.00 0.00 0.00 0.00 0.00 0.00 0.00 0.00 0.00 0.00 0.00 0.00 0.00 0.00 0.00 0.00 0.00 0.00 0.00 0.00 0.00 0.00 0.00 0.00 0.00 0.00 0.00 0.00 0.00 0.00 0.00 0.00 0.00 0.00 0.00 0.00 0.00
0.00 0.00 0.00 0.00 0.00 0.00 0.00 0.00 0.00 0.00 0.00 0.00 0.00 0.00 0.00 0.00 0.00 0.00 0.00 0.00 0.00 0.00 0.00 0.00 0.00 0.00 0.00 0.00 0.00 0.00 0.00 0.00 0.00 0.00 0.00 0.00 0.00 0.00 0.00 0.00 0.00 0.00 0.00 0.00 0.00
0.00 0.00 0.00 0.00 0.00 0.00 0.00 0.00 0.00 0.00 0.00 0.00 0.00 0.00 0.00 0.00 0.00 0.00 0.00 0.00 0.00 0.00 0.00 0.00 0.00 0.00 0.00 0.00 0.00 0.00 0.00 0.00 0.00 0.00 0.00 0.00 0.00 0.00 0.00 0.00 0.00 0.00 0.00 0.00 0.00
0.00 0.00 0.00 0.00 0.00 0.00 0.00 0.00 0.00 0.00 0.00 0.00 0.00 0.00 0.00 0.00 0.00 0.00 0.00 0.00 0.00 0.00 0.00 0.00 0.00 0.00 0.00 0.00 0.00 0.00 0.00 0.00 0.00 0.00 0.00 0.00 0.00 0.00 0.00 0.00 0.00 0.00 0.00 0.00 0.00
0.00 0.00 0.00 0.00 0.00 0.00 0.00 0.00 0.00 0.00 0.00 0.00 0.00 0.00 0.00 0.00 0.00 0.00 0.00 0.00 0.00 0.00 0.00 0.00 0.00 0.00 0.00 0.00 0.00 0.00 0.00 0.00 0.00 0.00 0.00 0.00 0.00 0.00 0.00 0.00 0.00 0.00 0.00 0.00 0.00
0.00 0.00 0.00 0.00 0.00 0.00 0.00 0.00 0.00 0.00 0.00 0.00 0.00 0.00 0.00 0.00 0.00 0.00 0.00 0.00 0.00 0.00 0.00 0.00 0.00 0.00 0.00 0.00 0.00 0.00 0.00 0.00 0.00 0.00 0.00 0.00 0.00 0.00 0.00 0.00 0.00 0.00 0.00 0.00 0.00
0.00 0.00 0.00 0.00 0.00 0.00 0.00 0.00 0.00 0.00 0.00 0.00 0.00 0.00 0.00 0.00 0.00 0.00 0.00 0.00 0.00 0.00 0.00 0.00 0.00 0.00 0.00 0.00 0.00 0.00 0.00 0.00 0.00 0.00 0.00 0.00 0.00 0.00 0.00 0.00 0.00 0.00 0.00 0.00 0.00
0.00 0.00 0.00 0.00 0.00 0.00 0.00 0.00 0.00 0.00 0.00 0.00 0.00 0.00 0.00 0.00 0.00 0.00 0.00 0.00 0.00 0.00 0.00 0.00 0.00 0.00 0.00 0.00 0.00 0.00 0.00 0.00 0.00 0.00 0.00 0.00 0.00 0.00 0.00 0.00 0.00 0.00 0.00 0.00 0.00
0.00 0.00 0.00 0.00 0.00 0.00 0.00 0.00 0.00 0.00 0.00 0.00 0.00 0.00 0.00 0.00 0.00 0.00 0.00 0.00 0.00 0.00 0.00 0.00 0.00 0.00 0.00 0.00 0.00 0.00 0.00 0.00 0.00 0.00 0.00 0.00 0.00 0.00 0.00 0.00 0.00 0.00 0.00 0.00 0.00
0.00 0.00 0.00 0.00 0.00 0.00 0.00 0.00 0.00 0.00 0.00 0.00 0.00 0.00 0.00 0.00 0.00 0.00 0.00 0.00 0.00 0.00 0.00 0.00 0.00 0.00 0.00 0.00 0.00 0.00 0.00 0.00 0.00 0.00 0.00 0.00 0.00 0.00 0.00 0.00 0.00 0.00 0.00 0.00 0.00
0.00 0.00 0.00 0.00 0.00 0.00 0.00 0.00 0.00 0.00 0.00 0.00 0.00 0.00 0.00 0.00 0.00 0.00 0.00 0.00 0.00 0.00 0.00 0.00 0.00 0.00 0.00 0.00 0.00 0.00 0.00 0.00 0.00 0.00 0.00 0.00 0.00 0.00 0.00 0.00 0.00 0.00 0.00 0.00 0.00
0.00 0.00 0.00 0.00 0.00 0.00 0.00 0.00 0.00 0.00 0.00 0.00 0.00 0.00 0.00 0.00 0.00 0.00 0.00 0.00 0.00 0.00 0.00 0.00 0.00 0.00 0.00 0.00 0.00 0.00 0.00 0.00 0.00 0.00 0.00 0.00 0.00 0.00 0.00 0.00 0.00 0.00 0.00 0.00 0.00
0.00 0.00 0.00 0.00 0.00 0.00 0.00 0.00 0.00 0.00 0.00 0.00 0.00 0.00 0.00 0.00 0.00 0.00 0.00 0.00 0.00 0.00 0.00 0.00 0.00 0.00 0.00 0.00 0.00 0.00 0.00 0.00 0.00 0.00 0.00 0.00 0.00 0.00 0.00 0.00 0.00 0.00 0.00 0.00 0.00
0.00 0.00 0.00 0.00 0.00 0.00 0.00 0.00 0.00 0.00 0.00 0.00 0.00 0.00 0.00 0.00 0.00 0.00 0.00 0.00 0.00 0.00 0.00 0.00 0.00 0.00 0.00 0.00 0.00 0.00 0.00 0.00 0.00 0.00 0.00 0.00 0.00 0.00 0.00 0.00 0.00 0.00 0.00 0.00 0.00
0.00 0.00 0.00 0.00 0.00 0.00 0.00 0.00 0.00 0.00 0.00 0.00 0.00 0.00 0.00 0.00 0.00 0.00 0.00 0.00 0.00 0.00 0.00 0.00 0.00 0.00 0.00 0.00 0.00 0.00 0.00 0.00 0.00 0.00 0.00 0.00 0.00 0.00 0.00 0.00 0.00 0.00 0.00 0.00 0.00
0.00 0.00 0.00 0.00 0.00 0.00 0.00 0.00 0.00 0.00 0.00 0.00 0.00 0.00 0.00 0.00 0.00 0.00 0.00 0.00 0.00 0.00 0.00 0.00 0.00 0.00 0.00 0.00 0.00 0.00 0.00 0.00 0.00 0.00 0.00 0.00 0.00 0.00 0.00 0.00 0.00 0.00 0.00 0.00 0.00
0.00 0.00 0.00 0.00 0.00 0.00 0.00 0.00 0.00 0.00 0.00 0.00 0.00 0.00 0.00 0.00 0.00 0.00 0.00 0.00 0.00 0.00 0.00 0.00 0.00 0.00 0.00 0.00 0.00 0.00 0.00 0.00 0.00 0.00 0.00 0.00 0.00 0.00 0.00 0.00 0.00 0.00 0.00 0.00 0.00
0.00 0.00 0.00 0.00 0.00 0.00 0.00 0.00 0.00 0.00 0.00 0.00 0.00 0.00 0.00 0.00 0.00 0.00 0.00 0.00 0.00 0.00 0.00 0.00 0.00 0.00 0.00 0.00 0.00 0.00 0.00 0.00 0.00 0.00 0.00 0.00 0.00 0.00 0.00 0.00 0.00 0.00 0.00 0.00 0.00
0.00 0.00 0.00 0.00 0.00 0.00 0.00 0.00 0.00 0.00 0.00 0.00 0.00 0.00 0.00 0.00 0.00 0.00 0.00 0.00 0.00 0.00 0.00 0.00 0.00 0.00 0.00 0.00 0.00 0.00 0.00 0.00 0.00 0.00 0.00 0.00 0.00 0.00 0.00 0.00 0.00 0.00 0.00 0.00 0.00
0.00 0.00 0.00 0.00 0.00 0.00 0.00 0.00 0.00 0.00 0.00 0.00 0.00 0.00 0.00 0.00 0.00 0.00 0.00 0.00 0.00 0.00 0.00 0.00 0.00 0.00 0.00 0.00 0.00 0.00 0.00 0.00 0.00 0.00 0.00 0.00 0.00 0.00 0.00 0.00 0.00 0.00 0.00 0.00 0.00
0.00 0.00 0.00 0.00 0.00 0.00 0.00 0.00 0.00 0.00 0.00 0.00 0.00 0.00 0.00 0.00 0.00 0.00 0.00 0.00 0.00 0.00 0.00 0.00 0.00 0.00 0.00 0.00 0.00 0.00 0.00 0.00 0.00 0.00 0.00 0.00 0.00 0.00 0.00 0.00 0.00 0.00 0.00 0.00 0.00
0.00 0.00 0.00 0.00 0.00 0.00 0.00 0.00 0.00 0.00 0.00 0.00 0.00 0.00 0.00 0.00 0.00 0.00 0.00 0.00 0.00 0.00 0.00 0.00 0.00 0.00 0.00 0.00 0.00 0.00 0.00 0.00 0.00 0.00 0.00 0.00 0.00 0.00 0.00 0.00 0.00 0.00 0.00 0.00 0.00
MSLP
1022.27 1022.06 1021.76 1021.66 1021.12 1020.68 1020.21 1019.79 1019.34 1019.14 1018.90 1018.57 1018.07 1017.82 1017.45 1016.97 1016.64 1016.39 1015.84 1015.29 1015.19 1015.19 1015.24 1015.15 1015.13 1014.93 1014.86 1014.46 1014.38 1014.18 1012.79 1011.41 1011.12 1011.17 1010.95 1011.22 1010.88 1010.58 1010.51 1010.12 1010.37 1010.36 1010.32 1010.89 1010.98
1022.20 1022.37 1021.58 1021.37 1020.96 1020.54 1019.95 1019.61 1019.23 1018.96 1018.74 1018.47 1018.08 1017.71 1017.35 1016.84 1016.48 1015.81 1015.30 1015.17 1015.09 1015.14 1015.23 1014.97 1014.98 1014.90 1014.53 1014.40 1014.16 1013.60 1012.48 1011.44 1011.31 1011.36 1010.92 1010.85 1010.84 1010.50 1010.41 1010.08 1010.03 1010.26 1010.68 1011.38 1011.60
1022.27 1022.45 1021.84 1021.22 1021.07 1020.20 1019.84 1019.31 1018.98 1018.70 1018.46 1018.27 1017.99 1017.57 1017.26 1016.82 1016.22 1015.23 1014.93 1014.86 1015.05 1015.13 1015.19 1015.18 1015.20 1014.93 1014.62 1014.53 1014.07 1013.43 1012.39 1011.78 1011.65 1011.65 1011.34 1011.04 1010.88 1010.79 1010.28 1009.70 1009.58 1009.70 1009.84 1011.00 1011.49
1022.59 1022.39 1021.66 1021.02 1020.58 1020.12 1019.51 1019.16 1018.65 1018.31 1018.05 1017.87 1017.66 1017.38 1017.03 1016.75 1016.06 1015.28 1015.01 1014.87 1015.06 1015.25 1015.25 1015.30 1015.38 1015.11 1014.72 1014.36 1014.15 1013.80 1012.89 1012.46 1012.00 1012.01 1011.97 1011.55 1011.37 1010.76 1010.26 1009.43 1009.71 1010.00 1010.34 1010.76 1011.12
1022.18 1022.19 1021.68 1020.73 1020.46 1019.62 1019.11 1018.61 1018.22 1017.96 1017.69 1017.51 1017.30 1017.23 1016.92 1016.45 1015.59 1015.46 1015.38 1015.26 1015.34 1015.41 1015.34 1015.37 1015.29 1015.22 1014.80 1014.63 1014.44 1013.82 1012.90 1012.76 1012.37 1012.25 1012.04 1011.96 1011.29 1010.90 1010.08 1009.80 1010.04 1010.22 1010.46 1010.43 1010.63
1021.86 1022.06 1021.40 1020.63 1019.84 1019.11 1018.55 1018.04 1017.58 1017.35 1017.13 1017.09 1017.13 1017.05 1016.81 1016.28 1015.72 1015.68 1015.64 1015.60 1015.61 1015.61 1015.58 1015.61 1015.33 1015.37 1015.15 1014.83 1014.47 1013.72 1013.37 1012.78 1012.41 1012.04 1011.97 1011.67 1010.95 1010.98 1009.81 1009.98 1009.79 1009.94 1009.86 1009.94 1010.12
1021.33 1022.05 1021.43 1020.34 1019.43 1018.65 1018.14 1017.55 1017.17 1016.58 1016.48 1016.66 1016.79 1016.81 1016.56 1016.04 1015.81 1015.85 1015.83 1015.77 1015.76 1015.60 1015.60 1015.71 1015.64 1015.57 1015.34 1014.89 1014.57 1014.04 1013.44 1012.53 1011.90 1011.71 1011.62 1011.46 1010.70 1010.05 1009.64 1009.73 1009.39 1009.27 1009.36 1009.40 1009.45
1021.45 1021.56 1021.12 1020.07 1019.10 1018.41 1017.92 1017.17 1016.83 1016.19 1016.21 1016.34 1016.61 1016.68 1015.83 1015.84 1015.86 1015.97 1015.88 1015.86 1015.99 1015.89 1015.78 1015.76 1015.77 1015.63 1015.44 1015.13 1014.48 1013.92 1013.40 1012.17 1011.41 1011.24 1011.18 1011.39 1009.56 1008.99 1009.08 1008.97 1008.62 1008.63 1008.57 1008.75 1008.88
1021.71 1021.37 1020.91 1019.87 1018.68 1018.22 1017.64 1016.96 1016.82 1016.24 1016.26 1016.42 1016.62 1016.57 1015.80 1015.84 1015.89 1015.91 1015.90 1015.81 1015.94 1015.99 1015.95 1015.87 1015.81 1015.56 1015.43 1014.99 1014.41 1013.79 1012.56 1012.19 1011.55 1011.33 1011.29 1011.02 1009.53 1008.59 1008.70 1008.75 1008.46 1008.17 1008.12 1008.15 1008.29
1021.59 1021.13 1020.70 1019.97 1018.71 1017.81 1017.44 1017.14 1017.06 1016.65 1016.68 1016.49 1016.59 1016.90 1016.14 1016.27 1016.14 1016.02 1015.99 1015.98 1015.89 1015.93 1016.01 1015.95 1015.77 1015.40 1015.12 1014.63 1013.45 1012.96 1012.77 1012.30 1011.72 1011.58 1011.45 1010.93 1010.06 1008.73 1008.90 1009.00 1008.41 1008.09 1007.73 1007.74 1007.78
1021.45 1020.87 1020.33 1019.63 1018.59 1017.98 1017.54 1017.37 1017.63 1017.48 1017.43 1017.40 1017.27 1017.03 1016.69 1016.44 1016.47 1016.16 1016.07 1015.95 1015.94 1015.94 1015.69 1015.98 1015.52 1014.38 1013.86 1013.95 1013.56 1013.49 1013.13 1012.42 1011.80 1011.86 1011.62 1010.53 1009.85 1008.28 1008.27 1008.38 1007.82 1007.45 1007.19 1007.08 1007.18
1021.38 1020.80 1020.12 1019.65 1018.91 1018.39 1018.20 1018.78 1020.23 1020.74 1018.96 1017.83 1017.58 1017.37 1017.02 1016.89 1016.46 1016.28 1016.31 1016.17 1015.98 1015.70 1015.98 1016.03 1014.82 1014.08 1014.44 1014.35 1014.24 1013.78 1013.25 1012.56 1011.91 1011.74 1011.70 1010.42 1009.27 1008.16 1007.25 1007.22 1006.75 1006.13 1005.85 1005.76 1006.01
1021.42 1020.73 1020.22 1019.72 1019.53 1019.16 1019.74 1020.57 1020.80 1020.46 1019.54 1017.90 1017.25 1016.99 1016.92 1016.89 1016.55 1016.48 1016.44 1016.25 1016.04 1015.93 1015.80 1015.24 1014.78 1014.68 1014.60 1014.57 1014.33 1013.71 1013.28 1012.69 1012.59 1011.98 1011.52 1010.66 1008.29 1007.17 1006.05 1006.17 1005.61 1004.91 1004.63 1004.93 1004.96
1021.44 1020.62 1020.16 1019.62 1019.80 1020.16 1020.23 1020.77 1020.83 1020.33 1019.20 1018.18 1016.97 1016.63 1016.71 1016.65 1016.63 1016.63 1016.53 1016.50 1016.20 1015.98 1015.82 1015.44 1015.05 1014.93 1014.75 1014.35 1014.25 1013.53 1013.15 1013.02 1012.95 1012.82 1011.43 1011.01 1008.12 1006.58 1005.58 1005.32 1004.83 1003.99 1004.26 1004.21 1004.26
1021.33 1020.69 1020.40 1020.11 1020.58 1020.86 1021.06 1020.71 1020.46 1020.39 1019.12 1018.22 1017.17 1016.49 1016.35 1016.55 1016.69 1016.57 1016.59 1016.36 1016.14 1016.00 1016.21 1014.98 1015.03 1014.99 1014.70 1014.15 1014.09 1013.46 1013.49 1013.44 1013.26 1012.81 1012.25 1010.46 1009.58 1006.01 1005.73 1004.63 1003.57 1003.50 1004.05 1004.19 1004.30
1021.38 1020.99 1020.61 1020.79 1020.90 1021.04 1021.15 1020.64 1019.98 1020.23 1019.14 1018.46 1017.73 1017.23 1017.04 1016.80 1016.78 1016.67 1016.62 1016.53 1016.54 1016.38 1015.99 1015.38 1015.39 1015.11 1014.48 1014.39 1014.36 1014.19 1013.83 1013.71 1013.63 1013.23 1011.97 1009.84 1009.03 1005.68 1004.90 1003.96 1003.65 1004.03 1004.08 1004.18 1004.33
1021.38 1021.09 1021.00 1021.26 1021.63 1021.11 1020.80 1020.37 1020.47 1020.23 1020.50 1020.10 1019.45 1018.91 1018.51 1017.99 1017.52 1017.19 1017.00 1016.94 1017.13 1016.88 1016.16 1015.50 1014.89 1014.81 1014.70 1014.50 1014.46 1014.48 1014.26 1013.80 1013.46 1013.14 1010.86 1010.30 1009.27 1006.41 1004.77 1004.31 1004.75 1004.71 1004.50 1004.53 1004.97
1021.35 1021.33 1021.31 1021.27 1021.49 1021.10 1020.59 1020.39 1021.16 1022.24 1021.92 1021.47 1020.73 1019.99 1019.57 1019.50 1018.85 1018.41 1018.04 1018.06 1018.43 1018.12 1017.30 1016.27 1015.28 1014.90 1014.93 1014.52 1014.25 1014.31 1014.41 1013.91 1013.09 1012.52 1011.16 1010.43 1008.16 1005.43 1004.83 1005.05 1005.40 1005.52 1005.55 1005.44 1005.36
1021.49 1021.68 1021.48 1021.29 1021.19 1020.73 1020.67 1021.34 1022.62 1022.79 1022.72 1022.32 1021.55 1021.31 1021.10 1020.59 1020.47 1019.61 1019.67 1020.10 1020.34 1019.90 1019.18 1017.72 1016.22 1015.52 1015.34 1015.08 1014.95 1014.66 1014.38 1014.07 1013.90 1013.76 1012.62 1009.58 1007.65 1006.15 1004.68 1005.41 1005.63 1005.70 1005.44 1005.84 1005.80
1022.06 1021.87 1021.54 1021.23 1021.00 1020.68 1021.10 1023.03 1023.65 1023.35 1023.20 1022.97 1022.70 1022.72 1022.44 1022.19 1021.34 1020.91 1020.76 1021.70 1021.54 1021.37 1020.99 1019.63 1018.05 1016.32 1015.80 1015.65 1015.37 1015.12 1014.94 1014.67 1014.47 1013.65 1011.65 1009.30 1008.00 1005.88 1005.30 1005.90 1005.92 1005.84 1006.22 1006.51 1006.34
1022.17 1021.93 1021.53 1021.31 1020.88 1021.55 1023.02 1023.87 1023.61 1023.59 1023.68 1023.45 1023.32 1023.36 1023.52 1023.46 1023.09 1022.46 1022.13 1022.68 1022.46 1022.13 1021.67 1021.05 1019.59 1017.28 1016.55 1015.88 1015.42 1015.68 1015.35 1015.33 1014.99 1014.05 1012.25 1010.20 1007.47 1006.16 1006.38 1006.71 1006.64 1006.78 1006.94 1006.98 1006.79
1022.47 1022.25 1021.93 1021.43 1022.47 1024.33 1024.51 1024.37 1024.13 1023.77 1023.63 1023.64 1023.70 1023.80 1024.01 1024.17 1023.89 1023.50 1022.98 1023.15 1023.12 1022.90 1022.59 1022.13 1021.12 1018.95 1017.37 1016.52 1016.66 1016.45 1016.16 1015.92 1015.82 1014.62 1013.64 1011.92 1008.23 1007.35 1007.27 1007.65 1007.73 1007.64 1007.42 1007.19 1007.36
1023.29 1023.32 1022.37 1022.40 1023.78 1024.79 1025.31 1024.61 1024.53 1024.19 1024.00 1023.94 1023.84 1024.20 1024.55 1024.73 1024.85 1024.36 1023.75 1023.82 1023.66 1023.41 1023.25 1022.90 1022.14 1020.69 1018.43 1018.06 1018.04 1018.11 1018.34 1018.35 1018.15 1016.85 1014.38 1012.94 1009.38 1008.74 1008.48 1008.49 1008.75 1008.70 1008.08 1007.51 1007.19
1023.98 1024.29 1023.84 1023.99 1025.25 1025.06 1025.42 1025.00 1024.71 1024.48 1024.31 1024.32 1024.13 1024.48 1024.84 1025.15 1025.19 1024.92 1024.27 1024.14 1024.14 1023.85 1023.61 1023.38 1023.05 1022.51 1021.19 1020.22 1020.46 1019.92 1019.49 1019.51 1019.97 1018.72 1015.91 1013.10 1011.91 1011.40 1011.05 1009.52 1008.77 1008.58 1008.35 1008.02 1007.54
1024.51 1025.39 1025.87 1025.61 1025.74 1025.55 1025.45 1025.39 1024.94 1024.79 1024.65 1024.59 1024.50 1024.31 1024.72 1025.33 1025.38 1025.08 1024.71 1024.49 1024.26 1024.22 1024.14 1024.19 1023.92 1023.54 1022.73 1022.16 1021.68 1020.92 1020.09 1019.47 1019.56 1018.93 1018.17 1013.53 1014.26 1014.03 1013.39 1012.39 1010.55 1009.23 1009.09 1008.67 1008.10
1024.71 1025.19 1025.90 1025.90 1025.98 1025.65 1025.45 1025.30 1024.97 1024.73 1024.68 1024.34 1024.27 1023.78 1024.40 1024.61 1024.12 1024.42 1024.62 1024.71 1024.41 1024.43 1024.39 1024.59 1024.05 1023.88 1023.04 1022.68 1022.12 1021.07 1020.23 1019.67 1018.75 1018.25 1016.88 1015.95 1013.63 1014.29 1013.44 1012.95 1012.02 1011.18 1010.57 1009.84 1008.88
1024.91 1025.33 1025.07 1025.46 1025.69 1025.54 1025.09 1024.68 1024.36 1024.42 1024.07 1023.61 1023.38 1023.67 1023.55 1022.83 1023.36 1023.55 1023.76 1024.06 1024.26 1024.45 1024.57 1024.76 1024.56 1024.65 1023.19 1023.02 1022.47 1020.80 1019.54 1018.71 1018.18 1017.64 1016.96 1015.77 1014.87 1015.11 1014.50 1013.70 1012.87 1011.78 1011.19 1010.73 1009.80
Thickness
5559 5557 5556 5553 5555 5555 5555 5555 5555 5553 5553 5553 5555 5557 5560 5565 5569 5574 5579 5585 5586 5587 5587 5590 5592 5595 5597 5600 5603 5604 5604 5611 5618 5618 5625 5624 5627 5641 5644 5646 5647 5655 5661 5661 5665
5555 5546 5552 5550 5549 5548 5550 5549 5550 5548 5546 5546 5547 5549 5552 5557 5562 5569 5575 5577 5578 5579 5580 5583 5583 5586 5590 5592 5595 5598 5601 5611 5619 5617 5618 5623 5624 5630 5630 5634 5640 5647 5652 5650 5653
5547 5539 5543 5545 5540 5545 5545 5546 5546 5544 5542 5539 5539 5541 5544 5548 5556 5566 5569 5571 5571 5572 5574 5576 5576 5580 5580 5584 5588 5593 5596 5609 5611 5610 5612 5614 5617 5623 5623 5625 5639 5644 5652 5645 5646
5537 5533 5538 5541 5540 5539 5542 5542 5544 5543 5540 5536 5534 5535 5538 5541 5555 5557 5560 5563 5563 5564 5566 5567 5567 5569 5572 5575 5581 5577 5592 5596 5601 5601 5599 5600 5606 5610 5617 5631 5634 5638 5640 5640 5640
5534 5528 5531 5538 5535 5540 5541 5542 5543 5541 5539 5534 5532 5530 5533 5540 5548 5546 5549 5552 5553 5554 5557 5559 5561 5561 5564 5568 5570 5572 5586 5587 5591 5592 5592 5593 5598 5602 5613 5624 5625 5626 5628 5634 5637
5533 5524 5528 5533 5537 5540 5540 5543 5544 5542 5540 5535 5530 5527 5529 5537 5537 5539 5540 5542 5543 5545 5545 5548 5553 5555 5557 5559 5562 5572 5573 5579 5584 5588 5587 5586 5596 5596 5614 5616 5619 5622 5627 5631 5633
5533 5518 5521 5530 5535 5539 5539 5543 5543 5545 5542 5537 5531 5527 5527 5535 5532 5532 5533 5535 5536 5539 5539 5540 5543 5545 5549 5551 5557 5561 5564 5575 5582 5584 5582 5585 5586 5592 5608 5608 5612 5619 5623 5628 5632
5524 5518 5519 5526 5533 5535 5536 5541 5541 5545 5541 5537 5532 5528 5536 5528 5527 5526 5527 5529 5528 5531 5533 5534 5535 5538 5540 5545 5551 5553 5558 5567 5580 5580 5582 5578 5588 5606 5607 5606 5611 5616 5622 5623 5627
5514 5514 5514 5522 5532 5532 5535 5539 5537 5539 5537 5534 5531 5529 5536 5527 5527 5523 5523 5524 5522 5523 5525 5527 5529 5532 5534 5536 5540 5546 5558 5560 5568 5573 5571 5573 5584 5605 5602 5601 5604 5612 5615 5618 5621
5510 5511 5511 5514 5525 5532 5532 5533 5531 5532 5531 5531 5529 5530 5532 5526 5523 5521 5520 5519 5519 5518 5517 5519 5521 5526 5528 5533 5543 5547 5545 5552 5558 5565 5562 5566 5571 5596 5594 5587 5596 5603 5612 5614 5619
5504 5507 5510 5513 5521 5526 5527 5528 5529 5530 5521 5521 5520 5520 5522 5522 5519 5520 5518 5518 5517 5516 5518 5513 5520 5529 5536 5535 5540 5535 5537 5544 5557 5555 5553 5565 5567 5590 5592 5587 5594 5602 5608 5612 5617
5498 5502 5506 5508 5513 5517 5516 5512 5496 5490 5510 5511 5510 5511 5513 5514 5519 5517 5515 5516 5514 5517 5509 5510 5521 5530 5521 5522 5521 5526 5530 5538 5549 5549 5544 5558 5564 5585 5594 5591 5597 5606 5612 5618 5621
5490 5495 5498 5500 5500 5505 5499 5491 5487 5489 5500 5510 5511 5512 5512 5511 5513 5512 5510 5509 5512 5510 5510 5516 5519 5512 5512 5513 5514 5521 5524 5531 5530 5541 5541 5544 5567 5582 5600 5593 5600 5610 5617 5619 5623
5481 5488 5490 5494 5493 5489 5489 5482 5481 5483 5514 5510 5514 5511 5508 5506 5508 5502 5502 5504 5506 5509 5505 5509 5509 5507 5509 5512 5512 5517 5523 5521 5521 5521 5534 5537 5549 5581 5598 5593 5598 5608 5607 5613 5617
5474 5479 5480 5482 5478 5476 5474 5475 5475 5475 5523 5498 5501 5502 5503 5504 5499 5498 5494 5498 5502 5503 5497 5516 5508 5503 5504 5511 5508 5515 5510 5510 5511 5516 5515 5540 5528 5572 5580 5592 5605 5604 5598 5606 5609
5465 5467 5471 5468 5467 5465 5463 5466 5472 5496 5508 5480 5482 5484 5491 5492 5489 5488 5489 5487 5487 5489 5492 5500 5493 5498 5505 5501 5499 5498 5503 5500 5495 5502 5502 5538 5535 5565 5582 5593 5599 5590 5593 5596 5601
5455 5457 5458 5454 5452 5454 5456 5463 5478 5501 5453 5452 5451 5461 5464 5470 5476 5475 5477 5480 5479 5481 5487 5493 5496 5490 5490 5494 5491 5489 5494 5496 5504 5490 5520 5506 5513 5546 5575 5580 5577 5576 5580 5584 5586
5446 5447 5446 5444 5442 5444 5449 5458 5465 5385 5406 5429 5438 5443 5450 5442 5453 5452 5461 5459 5447 5450 5464 5476 5494 5485 5479 5489 5491 5487 5485 5491 5498 5511 5518 5499 5520 5555 5565 5563 5560 5563 5563 5566 5572
5437 5434 5435 5434 5435 5437 5446 5441 5413 5399 5411 5412 5422 5418 5414 5422 5419 5436 5424 5417 5412 5417 5434 5448 5467 5467 5463 5466 5472 5474 5474 5486 5473 5414 5460 5515 5529 5541 5558 5549 5551 5554 5558 5555 5560
5424 5425 5426 5426 5427 5429 5426 5400 5393 5399 5398 5400 5395 5393 5397 5392 5408 5413 5412 5388 5390 5394 5391 5412 5425 5446 5450 5450 5452 5458 5461 5465 5463 5465 5485 5507 5496 5537 5547 5538 5538 5545 5542 5543 5550
5413 5419 5416 5415 5418 5413 5397 5379 5389 5389 5383 5386 5379 5377 5375 5370 5373 5382 5387 5368 5371 5374 5381 5381 5397 5434 5437 5445 5454 5441 5447 5442 5453 5459 5478 5486 5519 5534 5528 5523 5523 5525 5527 5528 5535
5401 5408 5404 5403 5399 5356 5371 5372 5375 5374 5374 5371 5370 5364 5360 5351 5357 5364 5369 5358 5357 5357 5347 5359 5361 5386 5417 5431 5418 5424 5432 5439 5444 5457 5446 5449 5492 5519 5511 5507 5509 5512 5517 5522 5520
5383 5382 5390 5389 5377 5357 5344 5359 5357 5358 5356 5355 5353 5350 5341 5335 5332 5329 5345 5340 5340 5341 5335 5342 5342 5352 5394 5395 5390 5378 5382 5384 5371 5392 5427 5438 5481 5496 5496 5495 5491 5489 5501 5513 5517
5369 5370 5370 5363 5344 5351 5337 5338 5340 5342 5340 5336 5336 5331 5324 5309 5317 5311 5326 5324 5320 5325 5330 5330 5325 5329 5348 5358 5349 5348 5363 5363 5346 5349 5391 5426 5442 5450 5447 5461 5480 5487 5494 5497 5507
5351 5344 5332 5346 5339 5337 5332 5327 5324 5319 5321 5318 5317 5318 5311 5287 5283 5284 5298 5305 5308 5304 5303 5302 5293 5295 5310 5319 5320 5326 5335 5345 5338 5345 5338 5404 5378 5394 5410 5427 5452 5469 5474 5482 5492
5343 5337 5322 5314 5313 5322 5318 5308 5311 5306 5307 5307 5300 5312 5299 5285 5295 5277 5278 5274 5289 5287 5283 5273 5280 5280 5279 5295 5294 5297 5319 5327 5340 5342 5355 5365 5385 5400 5412 5420 5433 5444 5449 5458 5466
5322 5318 5325 5321 5308 5305 5307 5304 5303 5303 5303 5304 5301 5290 5288 5290 5288 5285 5286 5279 5273 5266 5254 5254 5256 5237 5266 5270 5260 5268 5303 5320 5324 5335 5336 5339 5362 5363 5370 5385 5402 5418 5426 5433 5449